Find Starlink 2587

NORAD ID: 48399 Int'l Des: 2021-038 Owner: SPXS Country: US Constellation: starlink operational
LEOCIRCULAR

Live Position

Loading 3D Globe...

About Starlink 2587

Description loading...

Upcoming Passes

Passes for default location (London). Set your location on the main map for personalized predictions.

Altitude History

Loading altitude history...

Two-Line Element Set

1 48399U 21038AY 26106.43899598 .00001174 00000-0 49572-4 0 9991
2 48399 53.1611 157.1749 0001196 88.0049 272.1089 15.31703163274431
Epoch: Apr 16, 2026 • Age: 10 hours

Current Status

Altitude 487.8 km
Velocity 7.62 km/s
Sub-Earth Point -47.73°S, 129.93°W
Launch Date May 4, 2021
Age 4.9 years
Type internet

Technical Details

Classification Payload
Mass 260.00 kg
Dry Mass 248.00 kg
Total Mass 260.00 kg
Length 0.20 m
Diameter 2.80 m
Span 9.00 m
Shape Box + pan
Manufacturer SPXS
Bus Type Starlink
Phase Status In Orbit
Owner/State SPXS/US

Most Searched